Simultaneous Nadir Overpasses (SNOs) Predictions

Prediction of SNOs between METOP-C and LANDSAT-8 Satellite Orbit:

Table of predicted SNOs for the next 14.0 days since TLE Epoch: 10/26/2019
Index Date (METOP-C) Time (METOP-C) Lat,Lon (METOP-C) SZA (METOP-C ) Date (LANDSAT-8) Time (LANDSAT-8) Lat,Lon (LANDSAT-8) SZA (LANDSAT-8 ) Distance(km) Time Diff (sec)
1 10/28/2019 15:51:44 -81.16, 162.52 83.24 10/28/2019 15:52:23 -81.16, 162.42 83.24 1.66 39
2 10/28/2019 16:42:23 81.17, -29.73 96.83 10/28/2019 16:41:49 81.16, -29.87 96.79 2.52 34
3 10/31/2019 11:26:06 -81.15,-131.22 82.34 10/31/2019 11:26:38 -81.16,-131.09 82.30 2.50 32
4 10/31/2019 12:16:45 81.17, 36.56 97.74 10/31/2019 12:16:04 81.17, 36.61 97.72 0.92 41
5 11/03/2019 07:00:27 -81.16, -64.58 81.41 11/03/2019 07:00:53 -81.16, -64.62 81.40 0.70 26
6 11/03/2019 07:51:05 81.19, 103.61 98.71 11/03/2019 07:50:18 81.19, 103.43 98.67 3.08 47
7 11/06/2019 02:34:48 -81.16, 1.68 80.57 11/06/2019 02:35:07 -81.16, 1.82 80.55 2.62 19
8 11/06/2019 03:25:26 81.18, 169.90 99.55 11/06/2019 03:24:32 81.19, 169.85 99.53 0.92 54
9 11/08/2019 22:09:09 -81.16, 68.32 79.72 11/08/2019 22:09:22 -81.16, 68.24 79.73 1.37 13




NCC Satellite Simultaneous Nadir Overpasses (SNOs) Prediction Service
